sat.trackr.live / text

‹ back to catalog

STARLINK-2433

NORAD 47841 · 2021-018BG

PAYLOAD ACTIVE UNKNOWN

§ Identity

Operator
Country
US
Launch date
2021-03-11
Launch site
AFETR
Launch vehicle
Mass (kg)
RCS (m²)

Purposes: comms

External: N2YO · Heavens-Above · Gunter

§ Orbital elements

Epoch: 2026-09-15T20:50:48.664320Z

Period
94.01 min
Inclination
53.1597°
Eccentricity
0.0001558
Mean motion
15.31716925 rev/d
Perigee alt
469.6 km
Apogee alt
471.8 km
Semi-major
6,848.8 km
B*
1.8241e-4
RAAN
74.0079°
Arg perigee
97.7502°
Mean anomaly
262.3677°
Rev number
30,590

§ Raw data

STARLINK-24331 47841U 21018BG  26258.86861880  .00005302  00000+0  18241-3 0  99922 47841  53.1597  74.0079 0001558  97.7502 262.3677 15.31716925305902

JSON: /api/v1/satellites/47841 · /tle

For live sub-satellite position, see the globe view (requires WebGL).

§ Visibility from observer

Set your observer location to see the next 7 days of passes ≥ 10°. The values pass through the URL so the page stays shareable.

No JS? Fill the form by hand. The geolocation button needs JavaScript.